Tracking 31027 objects as of 19-Jul-2025
HD Live streaming from Space Station
objects crossing your sky now

COSMOS 1247 DEB

Track COSMOS 1247 DEB now!


NORAD ID: 12992
Int'l Code: 1981-016H
Perigee: 3,517.3 km
Apogee: 36,518.0 km
Inclination: 68.6 °
Period: 711.0 minutes
Semi major axis: 26388 km
RCS: 0.3832 m2 (medium)
Launch date: February 19, 1981
Source: Commonwealth of Independent States (former USSR) (CIS)
Launch site: PLESETSK MISSILE AND SPACE COMPLEX (PKMTR)

Note: This is SATELLITE DEBRIS
Your satellite tracking list
SL-12 R/B(AUX MOTOR)
Track 1 satellite(s)




NASA's NSSDC Master Catalog

Two Line Element Set (TLE):
1 12992U 81016H   25197.98020901 -.00000665  00000-0  00000-0 0  9990
2 12992  68.5781  32.5361 6252823 351.9306   1.4808  2.02524158224991
Source of the keplerian elements: AFSPC